This is the latest recevied weather packets stored in our database for station/object K6POO-1. If no packets are shown the sender has not sent any weather packets the latest 10 day(s).
| Time | Temp. | Humidity | Pressure | Rain* | Wind** | Luminosity | Snow |
|---|---|---|---|---|---|---|---|
| 1777840552 | 16.67° C | 64% | 1013.1 hPa | 0 mm | - | 449 W/m² | - |
| 1777840249 | 16.67° C | 65% | 1013.3 hPa | 0 mm | - | 1042 W/m² | - |
| 1777839947 | 16.67° C | 67% | 1013.4 hPa | 0 mm | - | 610 W/m² | - |
| 1777839645 | 16.11° C | 66% | 1013.2 hPa | 0 mm | - | 544 W/m² | - |
| 1777839343 | 16.67° C | 64% | 1013.3 hPa | 0 mm | - | 472 W/m² | - |
| 1777839040 | 16.67° C | 65% | 1013.5 hPa | 0 mm | - | 678 W/m² | - |
| 1777838736 | 16.67° C | 65% | 1013.3 hPa | 0 mm | - | 402 W/m² | - |
| 1777838433 | 16.11° C | 67% | 1013.5 hPa | 0 mm | - | 430 W/m² | - |
| 1777838130 | 16.11° C | 68% | 1013.4 hPa | 0 mm | - | 340 W/m² | - |
| 1777837827 | 15.56° C | 69% | 1013.5 hPa | 0 mm | - | 306 W/m² | - |
| 1777837524 | 15.56° C | 69% | 1013.6 hPa | 0 mm | - | 336 W/m² | - |
| 1777837224 | 15.56° C | 68% | 1013.4 hPa | 0 mm | - | 334 W/m² | - |
| 1777836921 | 15.56° C | 70% | 1013.6 hPa | 0 mm | - | 322 W/m² | - |
| 1777836616 | 15.56° C | 69% | 1013.6 hPa | 0 mm | - | 317 W/m² | - |
| 1777836312 | 15.56° C | 68% | 1013.6 hPa | 0 mm | - | 400 W/m² | - |
| 1777836008 | 15.56° C | 70% | 1013.5 hPa | 0 mm | - | 448 W/m² | - |
| 1777835705 | 15.56° C | 70% | 1013.8 hPa | 0 mm | - | 408 W/m² | - |
| 1777835402 | 15.56° C | 72% | 1013.7 hPa | 0 mm | - | 417 W/m² | - |
| 1777835099 | 15.56° C | 71% | 1013.6 hPa | 0 mm | - | 437 W/m² | - |
| 1777834796 | 15.56° C | 71% | 1013.5 hPa | 0 mm | - | 355 W/m² | - |
| 1777834492 | 15.56° C | 72% | 1013.6 hPa | 0 mm | - | 364 W/m² | - |
| 1777834192 | 15.56° C | 70% | 1013.6 hPa | 0 mm | - | 390 W/m² | - |
| 1777833888 | 16.11° C | 70% | 1013.7 hPa | 0 mm | - | 378 W/m² | - |
| 1777833585 | 15° C | 73% | 1013.6 hPa | 0 mm | - | 565 W/m² | - |
| 1777833282 | 15° C | 72% | 1013.6 hPa | 0 mm | - | 469 W/m² | - |
* Rain latest hour (hover to see other rain measurements)
** Current wind speed in m/s (hover to see current wind gust speed)